Content
SEND FEEDBACK

Daily
Averages
Monthly
Summary
Canada

BRANTFORD, ONTARIO


Home > North America > Canada > Ontario
Elevation: 815 feet     Latitude: 43 08N     Longitude: 080 21W

WEATHER
 
SELECT A DAY
Number of Records: 132,896;   Date Range: 5/15/00 - 11/27/14
 
SHARE

PRINT THIS DATA

[ ← Previous Day ]
WEATHER ALMANAC - MARCH 29, 2014
[ Next Day → ]
[ °C ]   °F
Weather ElementAverageHighLow
Temperature32 °F34.3 °F (2:00 pm)28.8 °F (2:00 am)
Dewpoint28.1 °F29.3 °F (8:00 am)26.8 °F (2:00 am)
Humidity84.6 %94 % (3:00 am)68 % (8:00 pm)
Barometer30.11 in30.19 in (1:00 am)30.01 in (11:00 pm)
Wind Speed4.1 mph8.1 mph (8:00 pm)
Wind Gust18.4 mph (4:00 pm)
Weather ElementAverage
Wind DirectionENE (56.7 °)

Weather ElementTotal
Precipitation0.03 in
Heating Degree Days33.5 (Base 65)
Averaged from 27 records on March 29, 2014
WEATHER CONDITIONS BREAKOUT
WIND DIRECTION BREAKOUT
WEATHER BY HOUR - MARCH 29, 2014
[ °C ]   °F
Local TimeTemperatureDewpointHumidityBarometerVisibilityWind DirectionWind SpeedGust SpeedPrecipitationEventsConditions
1:00 AM30.4 °F27.9 °F90 %30.19 inNNE (20°)2.3 mph
2:00 AM29.0 °F27.0 °F88 %30.18 inNorth (10°)1.2 mph
2:00 AM28.8 °F26.8 °F92 %30.18 inNorth (10°)1.2 mph
3:00 AM29.5 °F27.9 °F94 %30.18 inENE (60°)1.2 mph
4:00 AM30.0 °F28.2 °F93 %30.19 inWest (270°)1.2 mph
5:00 AM30.4 °F28.4 °F92 %30.19 inNNW (330°)3.5 mph
6:00 AM32.0 °F28.2 °F86 %30.17 inNNE (30°)2.3 mph
7:00 AM31.6 °F27.7 °F85 %30.17 inNE (50°)2.3 mph
8:00 AM32.0 °F28.0 °F77 %30.16 inEast (80°)2.3 mph
8:00 AM31.6 °F29.3 °F91 %30.16 inEast (80°)2.3 mph
9:00 AM31.3 °F27.3 °F85 %30.16 inENE (60°)2.3 mph
10:00 AM32.9 °F27.1 °F79 %30.18 inNE (40°)2.3 mph
11:00 AM33.3 °F27.1 °F78 %30.16 inNE (40°)2.3 mph
12:00 PM33.8 °F27.3 °F77 %30.14 inNNE (30°)3.5 mph
1:00 PM34.0 °F28.8 °F81 %30.09 inNE (40°)3.5 mph
2:00 PM34.0 °F29.0 °F76 %30.06 inNE (40°)5.8 mph
2:00 PM34.3 °F29.3 °F82 %30.06 inNE (40°)5.8 mph
3:00 PM33.3 °F29.1 °F85 %30.04 inNE (40°)5.8 mph
4:00 PM31.6 °F28.2 °F87 %30.04 inNNE (30°)6.9 mph18.4 mph
5:00 PM32.9 °F27.7 °F81 %30.02 inNE (40°)6.9 mph17.3 mph
6:00 PM33.3 °F29.3 °F85 %30.03 inNE (40°)6.9 mph18.4 mph
7:00 PM33.4 °F29.3 °F85 %30.02 inNE (40°)5.8 mph
8:00 PM34.0 °F27.0 °F68 %30.02 inNNE (20°)8.1 mph
8:00 PM33.6 °F27.3 °F78 %30.02 inNNE (20°)8.1 mph17.3 mph
9:00 PM31.5 °F28.0 °F87 %30.03 inNNE (30°)6.9 mph
10:00 PM30.6 °F28.4 °F92 %30.02 inNNE (20°)5.8 mph0.02 in
11:00 PM30.9 °F28.4 °F90 %30.01 inNNE (20°)4.6 mph0.01 in
Hourly data recorded from CXDI, located miles away from Brantford, Ontario







STORIES FROM OUR PARTNERS